Keahole Point, HI

10:22 PM HST on October 17, 2017 (GMT -1000)
Kona International At Keahole

Weather History for PHKO - November, 2015

Change the Weather History Date:

Wednesday, November 18, 2015

  Actual Average Record
Temperature  
Mean Temperature 78 °F -  
Max Temperature 84 °F 81 °F 89 °F (1986)
Min Temperature 73 °F 70 °F 68 °F (1983)
Cooling Degree Days 14    
Growing Degree Days 28 (Base 50)    
Moisture  
Dew Point 67 °F    
Average Humidity 64    
Maximum Humidity 72    
Minimum Humidity 52    
Precipitation  
Precipitation 0.00 in - - ()
Sea Level Pressure  
Sea Level Pressure 29.91 in    
Wind  
Wind Speed 6 mph (South)    
Max Wind Speed 8 mph    
Max Gust Speed -    
Visibility 10 miles    
Events      
Averages and records for this station are not official NWS values.
T = Trace of Precipitation, MM = Missing Value Source: NWS Daily Summary

Daily Weather History Graph

Daily Weather History Graph

Search for Another Location

Airport or City:

Trip Planner

Search our weather history database for the weather conditions in past years. The results will help you decide how hot, cold, wet, or windy it might be!

Date:

Astronomy

Nov. 18, 2015 Rise Set
Actual Time 6:34 AM HST 5:44 PM HST
Civil Twilight 6:11 AM HST 6:07 PM HST
Nautical Twilight 5:44 AM HST 6:34 PM HST
Astronomical Twilight 5:17 AM HST 7:00 PM HST
Moon 12:24 PM HST No Moon Set
Length of Visible Light 11h 56m
Length of Day
11h 09m
Waxing Crescent, 46% of the Moon is Illuminated
Nov 18
Waxing Crescent
Nov 18
First Quarter
Nov 25
Full
Dec 2
Last Quarter
Dec 11
New

Hourly Weather History & Observations

Time (HST) Temp. Heat Index Dew Point Humidity Pressure Visibility Wind Dir Wind Speed Gust Speed Precip Events Conditions
12:53 AM 75.9 °F - 64.9 °F 69% 29.92 in 10.0 mi SSE 5.8 mph - N/A   Clear
1:53 AM 75.9 °F - 64.0 °F 67% 29.91 in 10.0 mi SE 8.1 mph - N/A   Clear
2:53 AM 75.9 °F - 64.9 °F 69% 29.91 in 10.0 mi ESE 8.1 mph - N/A   Clear
3:53 AM 75.9 °F - 64.9 °F 69% 29.90 in 10.0 mi ESE 8.1 mph - N/A   Clear
4:53 AM 75.9 °F - 64.9 °F 69% 29.91 in 10.0 mi East 6.9 mph - N/A   Clear
5:53 AM 73.0 °F - 61.0 °F 66% 29.92 in 10.0 mi NE 4.6 mph - N/A   Clear
7:53 AM 79.0 °F - 60.1 °F 52% 29.95 in 10.0 mi Calm Calm - N/A   Clear
8:53 AM 82.9 °F 84.6 °F 64.9 °F 54% 29.95 in 10.0 mi Calm Calm - N/A   Clear
9:53 AM 82.9 °F 84.6 °F 64.9 °F 54% 29.96 in 10.0 mi WSW 6.9 mph - N/A   Clear
10:53 AM 84.0 °F 86.5 °F 66.9 °F 56% 29.94 in 10.0 mi WSW 8.1 mph - N/A   Clear
11:53 AM 84.0 °F 87.8 °F 69.1 °F 61% 29.91 in 10.0 mi West 8.1 mph - N/A   Clear
12:53 PM 84.0 °F 87.0 °F 68.0 °F 58% 29.88 in 10.0 mi West 4.6 mph - N/A   Clear
1:53 PM 84.0 °F 87.8 °F 69.1 °F 61% 29.85 in 10.0 mi WSW 6.9 mph - N/A   Partly Cloudy
3:53 PM 82.9 °F 86.5 °F 69.1 °F 63% 29.83 in 10.0 mi WSW 6.9 mph - N/A   Mostly Cloudy
4:53 PM 82.9 °F 87.0 °F 70.0 °F 65% 29.86 in 10.0 mi WSW 6.9 mph - N/A   Partly Cloudy
5:53 PM 81.0 °F 84.9 °F 71.1 °F 72% 29.88 in 10.0 mi SW 5.8 mph - N/A   Mostly Cloudy
6:53 PM 81.0 °F 84.4 °F 70.0 °F 69% 29.89 in 10.0 mi SSW 6.9 mph - N/A   Mostly Cloudy
7:53 PM 81.0 °F 84.4 °F 70.0 °F 69% 29.91 in 10.0 mi South 5.8 mph - N/A   Mostly Cloudy
8:53 PM 80.1 °F 83.2 °F 70.0 °F 71% 29.92 in 10.0 mi SE 4.6 mph - N/A   Mostly Cloudy
9:53 PM 80.1 °F 83.2 °F 70.0 °F 71% 29.93 in 10.0 mi ESE 5.8 mph - N/A   Clear
11:53 PM 79.0 °F - 66.9 °F 66% 29.91 in 10.0 mi ENE 3.5 mph - N/A   Clear